Location: North Bay
(46.3091°N, 79.4608°W)
Time: 05:20:17
(UTC-05:00)

N. Korean satellite - Pass Details

Date: 26 October 2019
Orbit: 456 x 506 km, 97.2° (Epoch: 20 November)

Event Time Altitude Azimuth Distance (km) Brightness Sun altitude
Rises 06:05:34 0° 33° (NNE) 2,583 10.7 -18.6°
Reaches altitude 10° 06:08:43 10° 63° (ENE) 1,704 10.3 -18.1°
Maximum altitude 06:10:23 13° 90° (E) 1,546 10.3 -17.8°
Drops below altitude 10° 06:12:03 10° 117° (ESE) 1,707 10.3 -17.5°
Sets 06:15:11 0° 147° (SSE) 2,591 10.7 -17.0°
